Aeroporto :
LOGIN :

Iscrizione | Disclaimer

   EN    FR    IT 

 










Sommario :    VFR   VFR Marginale   IFR   IFR Intensivo   IFR Molto Intensivo
Visibilità : 
Base nubi : 
>= 8 km
>= 3000ft
5 / 8 km
1000 / 3000 ft
1500m / 5 km
500 / 1000 ft
800 / 1500m
200 / 500 ft
< 800m
< 200 ft
Simboli :   Temporali  Nebbia  Neve Forte  Precipitazioni Forti  Vento > 20 kt
SIGMETs :   Varie  Temporali  Ghiacco  Turbolenza  Onda orograficha  Ceneri Vulcaniche







- Altitudine del aeroporto : 284 ft


EGUW - RAF Wattisham

ULTIMO METAR :
  • 161750Z 21008KT 9999 SCT026 SCT250 17/13 Q1016 BLU NOSIG

METARs OBSOLETI :
  • 161650Z 20006KT 9999 FEW025 SCT250 17/13 Q1015 BLU NOSIG
  • 161550Z 20009KT 9999 FEW030 SCT250 19/13 Q1015 BLU NOSIG

TAF TAF EGUW
Valido dal 16 a 18 ore il 17 a 02 ore UTC


161647Z 1618/1702 18010KT 9999 FEW030
PROB40
TEMPO 1618/1621 FEW010 BKN016
PROB30 1700/1702 6000 BR
Nessun NOTAM noto per questo aeroporto.



MetMap, La meteo Aeronautica in un colpo d'occhio ! - Copyright ORBIFLY Dicembre 2007 - Disclaimer

ORBIFLY MET'MAP TEAM :

Programmazione e sviluppo : Alexandra Zaïnal
Concezione e sviluppo : Baudouin d'Aumeries
Co-Programmazione e sviluppo : Marc-Olivier Méhu
Supporto tecnico e logistico : Manuel Goepfert
Aiuto per la traduzione : Arnaldo La Scala

Contatto : metmap@orbifly.com




FONTI E CREDITI :

   NOAA